星链-6333 (STARLINK-6333 )

导读 | 豆包AI

STARLINK-6333是美国太空探索技术公司星链(Starlink)互联网星座的一员,于2023年5月14日发射升空,是星链星座组网建设中的卫星。星链星座旨在为全球提供低延迟、高速率的卫星互联网服务,该卫星入轨后承担了相应的信号传输任务,助力星链星座完善全球网络覆盖能力。

基本信息
目录编号:
56521
目录名称:
STARLINK-6333
国际标识:
2023-065U
轨道中心:
EARTH
卫星名称:
星链-6333
卫星全名:
星链-6333 (STARLINK-6333 )
卫星状态:
在轨 (已飞行1036 天)
发射日期:
2023-05-14 UTC
国别 :
美国 (US)
星等 :
--
轨道信息
数据来源 国际轨道数据 AOE轨道数据
星历时间 2026-03-14T23:14:18+0800
1天前
查看轨道信息
2026-03-11T09:00:00+0800
4天前
查看轨道信息
半长轴 6937.206km 6937.291km
偏心率 0.0001004 0.0001362
轨道倾角 43.002° 43.002°
近地点辐角 267.368° 272.052°
升交点赤经 183.030° 202.556°
平近点角 92.705° 69.244°
近地点 558.372km 558.209km
远地点 559.766km 560.099km
周期 95.838分钟 95.839分钟
每日圈数 15.025397 15.025121
详细信息
固有亮度:
5
最大亮度:
2.5
卫星平台:
Starlink v1.5
覆盖范围:
全球
运营商:
太空探索技术公司
运营商所在国:
美国
制造商(研发单位):
太空探索技术公司
制造商所在国:
美国
使用方式:
暂无
卫星简介
星链(Starlink)计划是由太空探索技术公司(SpaceX)提出的一个巨型低轨卫星互联网星座项目,计划在2019年至2024年间在太空搭建由约1.2万颗卫星组成的“星链”网络,其中1584颗将部署在地球上空550千米处的近地轨道,并从2020年开始工作。该卫星仍在工作。
2D轨道图
3D轨道图
轨道高度分析图
轨道倾角分析图
轨道综合分析图
查看轨道综合分析图